Weather History for Williamsport, PA

Change the Weather History Date:

Tuesday, November 29, 2011

  Actual Average Record
Temperature  
Mean Temperature 58 °F 37 °F  
Max Temperature 66 °F 44 °F 69 °F (1927)
Min Temperature 49 °F 30 °F 6 °F (1930)
Degree Days  
Heating Degree Days 7 28  
Month to date heating degree days 549 673  
Since 1 July heating degree days 987 1216  
Cooling Degree Days 0 0  
Month to date cooling degree days 0 0  
Year to date cooling degree days 992 702  
Growing Degree Days 7 (Base 50)    
Moisture  
Dew Point 53 °F    
Average Humidity 79    
Maximum Humidity 86    
Minimum Humidity 71    
Precipitation  
Precipitation 0.54 in 0.13 in 3.68 in (2005)
Month to date precipitation 3.18 3.60  
Year to date precipitation 66.36 38.21  
Snow  
Snow 0.00 in - - ()
Month to date snowfall T  
Since 1 July snowfall 1.0  
Since 1 September snowfall 1.0  
Snow Depth 0.00 in    
Sea Level Pressure  
Sea Level Pressure 29.73 in    
Wind  
Wind Speed 11 mph (ESE)    
Max Wind Speed 26 mph    
Max Gust Speed 37 mph    
Visibility 8 miles    
Events Rain    
T = Trace of Precipitation, MM = Missing Value Source: NWS Daily Summary

Daily Weather History Graph

Daily Weather History Graph

Search for Another Location

Airport:

Trip Planner

Search our weather history database for the weather conditions in past years. The results will help you decide how hot, cold, wet, or windy it might be!

Date:

Astronomy

Nov. 29, 2011 Rise Set
Actual Time 7:11 AM EST 4:40 PM EST
Civil Twilight 6:40 AM EST 5:10 PM EST
Nautical Twilight 6:06 AM EST 5:44 PM EST
Astronomical Twilight 5:33 AM EST 6:18 PM EST
Moon 10:55 AM EST 9:32 PM EST
Length of Visible Light 10h 29m
Length of Day
9h 28m
Waxing Crescent, 24% of the Moon is Illuminated
Nov 29
Waxing Crescent
Dec 2
First Quarter
Dec 10
Full
Dec 17
Last Quarter
Dec 24
New

Hourly Weather History & Observations

Time (EST) Temp. Dew Point Humidity Pressure Visibility Wind Dir Wind Speed Gust Speed Precip Events Conditions
12:28 AM 57.2 °F 50.0 °F 77% 29.94 in 10.0 mi ESE 8.1 mph - N/A   Overcast
12:54 AM 57.9 °F 50.0 °F 75% 29.94 in 10.0 mi Calm Calm - N/A   Overcast
1:24 AM 57.2 °F 51.8 °F 82% 29.94 in 10.0 mi South 3.5 mph - N/A   Mostly Cloudy
1:54 AM 61.0 °F 53.1 °F 75% 29.94 in 10.0 mi SE 4.6 mph - N/A   Mostly Cloudy
2:03 AM 57.2 °F 51.8 °F 82% 29.94 in 10.0 mi Calm Calm - N/A   Overcast
2:54 AM 57.9 °F 52.0 °F 81% 29.92 in 10.0 mi Calm Calm - N/A   Overcast
3:54 AM 60.1 °F 54.0 °F 80% 29.90 in 10.0 mi Calm Calm - N/A   Overcast
4:54 AM 60.1 °F 55.0 °F 83% 29.88 in 10.0 mi ESE 3.5 mph - 0.00 in   Overcast
5:39 AM 62.6 °F 55.4 °F 77% 29.86 in 10.0 mi East 8.1 mph - N/A   Overcast
5:54 AM 62.1 °F 55.9 °F 80% 29.85 in 10.0 mi East 11.5 mph - N/A   Overcast
6:17 AM 60.8 °F 57.2 °F 88% 29.86 in 2.5 mi ENE 9.2 mph 28.8 mph 0.01 in Rain Light Rain
6:30 AM 60.8 °F 57.2 °F 88% 29.86 in 2.0 mi East 8.1 mph - 0.03 in Rain Rain
6:50 AM 60.8 °F 57.2 °F 88% 29.85 in 6.0 mi East 13.8 mph 17.3 mph 0.06 in Rain Light Rain
6:54 AM 60.8 °F 57.2 °F 88% 29.85 in 10.0 mi ENE 9.2 mph - N/A Rain Light Rain
7:35 AM 62.6 °F 57.2 °F 82% 29.85 in 5.0 mi East 13.8 mph 27.6 mph 0.00 in Rain Light Rain
7:54 AM 62.1 °F 57.9 °F 86% 29.84 in 10.0 mi East 11.5 mph 25.3 mph 0.00 in   Overcast
8:54 AM 64.0 °F 57.0 °F 78% 29.83 in 10.0 mi East 15.0 mph 23.0 mph N/A   Mostly Cloudy
9:54 AM 64.0 °F 57.0 °F 78% 29.81 in 10.0 mi East 15.0 mph 24.2 mph N/A   Overcast
10:54 AM 64.9 °F 55.9 °F 73% 29.77 in 10.0 mi East 15.0 mph 23.0 mph N/A   Overcast
11:54 AM 64.9 °F 55.9 °F 73% 29.70 in 10.0 mi East 17.3 mph 28.8 mph 0.00 in   Overcast
12:54 PM 64.0 °F 57.0 °F 78% 29.65 in 10.0 mi East 17.3 mph 29.9 mph 0.00 in   Overcast
1:54 PM 63.0 °F 57.9 °F 84% 29.62 in 3.0 mi East 17.3 mph 26.5 mph 0.12 in Rain Rain
2:38 PM 62.6 °F 57.2 °F 82% 29.62 in 8.0 mi SE 16.1 mph 26.5 mph N/A Rain Rain
2:54 PM 62.1 °F 57.0 °F 84% 29.64 in 3.0 mi ESE 9.2 mph 18.4 mph 0.11 in Rain Rain
3:02 PM 62.6 °F 57.2 °F 82% 29.64 in 3.0 mi Calm Calm - 0.02 in Rain Rain
3:54 PM 60.1 °F 55.0 °F 83% 29.64 in 4.0 mi SSE 12.7 mph 21.9 mph 0.09 in Rain Rain
4:01 PM 60.8 °F 55.4 °F 82% 29.64 in 4.0 mi ESE 9.2 mph - 0.01 in Rain Rain
4:54 PM 57.0 °F 52.0 °F 83% 29.60 in 5.0 mi East 12.7 mph 20.7 mph 0.08 in Rain Rain
5:50 PM 57.2 °F 53.6 °F 88% 29.59 in 10.0 mi ENE 19.6 mph 26.5 mph 0.06 in Rain Light Rain
5:54 PM 57.0 °F 54.0 °F 89% 29.60 in 10.0 mi East 16.1 mph 26.5 mph 0.06 in Rain Light Rain
5:59 PM 57.2 °F 53.6 °F 88% 29.58 in 10.0 mi ENE 20.7 mph 28.8 mph 0.00 in Rain Light Rain
6:07 PM 57.2 °F 53.6 °F 88% 29.61 in 10.0 mi SE 10.4 mph 25.3 mph 0.00 in Rain Light Rain
6:54 PM 55.0 °F 48.9 °F 80% 29.62 in 10.0 mi ESE 15.0 mph 25.3 mph 0.02 in Rain Light Rain
7:36 PM 51.8 °F 44.6 °F 76% 29.61 in 10.0 mi SSE 16.1 mph 26.5 mph 0.00 in   Mostly Cloudy
7:54 PM 51.1 °F 45.0 °F 80% 29.62 in 10.0 mi SSE 13.8 mph 21.9 mph 0.00 in   Partly Cloudy
8:54 PM 52.0 °F 42.1 °F 69% 29.60 in 10.0 mi South 11.5 mph 17.3 mph N/A   Scattered Clouds
9:54 PM 51.1 °F 43.0 °F 74% 29.58 in 10.0 mi SE 9.2 mph 19.6 mph N/A   Overcast
10:03 PM 50.0 °F 44.6 °F 82% 29.58 in 10.0 mi SSE 10.4 mph 16.1 mph N/A   Overcast
10:33 PM 50.0 °F 42.8 °F 76% 29.57 in 10.0 mi SSE 10.4 mph - N/A   Overcast
10:54 PM 50.0 °F 42.1 °F 74% 29.57 in 10.0 mi SE 11.5 mph 20.7 mph N/A   Overcast
11:54 PM 48.9 °F 41.0 °F 74% 29.53 in 10.0 mi SSE 18.4 mph 26.5 mph N/A   Mostly Cloudy